Weather in Pilyugino

Russia / Orenburg Oblast     53°24′05″N   52°24′50″E
temp.,
°C
wind,
m/s
gust,
m/s
humid.,
%
clouds,
%
prec.,
mm/h
press.,
hPa
HPBL,
m
21 january, fri
fri2123:00−16se2296100 0.0 102336
02:00−17se229892 0.1 102331
05:00−16se229895 0.1 102319
08:00−17se229980 0.1 102314
11:00−15sse2397100 0.1 102461
14:00−12sse249580 0.1 1023138
17:00−15ese229861 0.1 102420
20:00−19ese2210099 0.0 102513
22 january, sat
sat2223:00−16ese2299100 0.1 102420
02:00−16se2299100 0.1 102425
05:00−12se499595 0.2 1024238
08:00−11se41094100 0.1 1024293
11:00−10se41193100 0.1 1025314
14:00−9sse41192100 0.0 1025352
17:00−9sse41092100 0.0 1026312
20:00−10se41092100 0.0 1027261
23 january, sun
sun2323:00−11se3990100 0.0 1028198
02:00−12se3689100 0.0 1030154
05:00−11se3887100 0.0 1030209
08:00−13se2488100 0.0 103264
11:00−12ese2786100 0.0 1033214
14:00−10ese3883100 0.0 1034237
17:00−9ese2686100 0.0 1035221
20:00−13ene1191100 0.0 103724
24 january, mon
mon2423:00−13ese2589100 0.0 103874
02:00−15e2291100 0.0 103910
05:00−14e2588100 0.0 104094
08:00−17e2293100 0.0 104016
11:00−16e2292100 0.0 104126
14:00−12e2784100 0.0 1040200
17:00−13e2290100 0.0 104027
20:00−15ese2292100 0.0 104026
25 january, tue
tue2523:00−17e119291 0.0 104010
02:00−18e1192100 0.0 103911
05:00−19se1191100 0.0 10399
08:00−20ese2191100 0.0 10389
11:00−18se2289100 0.0 103825
14:00−12sse2382100 0.0 103795
17:00−14sse2291100 0.0 10379
20:00−19ese119479 0.0 10379